Crestview, FL

4:56 AM CDT on September 24, 2017 (GMT -0500)
Sikes

Weather History for KCEW - December, 2012

Change the Weather History Date:

Wednesday, December 26, 2012

  Actual Average Record
Temperature  
Mean Temperature 47 °F -  
Max Temperature 57 °F 57 °F 81 °F (2015)
Min Temperature 32 °F 33 °F 13 °F (1983)
Degree Days  
Heating Degree Days 18    
Moisture  
Dew Point 35 °F    
Average Humidity 67    
Maximum Humidity 88    
Minimum Humidity 50    
Precipitation  
Precipitation 0.00 in - - ()
Sea Level Pressure  
Sea Level Pressure 29.92 in    
Wind  
Wind Speed 12 mph (WNW)    
Max Wind Speed 23 mph    
Max Gust Speed 37 mph    
Visibility 10 miles    
Events      
Averages and records for this station are not official NWS values.
T = Trace of Precipitation, MM = Missing Value Source: NWS Daily Summary

Daily Weather History Graph

Daily Weather History Graph

Search for Another Location

Airport or City:

Trip Planner

Search our weather history database for the weather conditions in past years. The results will help you decide how hot, cold, wet, or windy it might be!

Date:

Astronomy

Dec. 26, 2012 Rise Set
Actual Time 6:42 AM CST 4:51 PM CST
Civil Twilight 6:15 AM CST 5:18 PM CST
Nautical Twilight 5:45 AM CST 5:48 PM CST
Astronomical Twilight 5:15 AM CST 6:18 PM CST
Moon 3:43 PM CST (12/26) 5:06 AM CST (12/26)
Length of Visible Light 11h 03m
Length of Day
10h 09m
Waxing Gibbous, 97% of the Moon is Illuminated
Dec 26
Waxing Gibbous
Dec 28
Full
Jan 4
Last Quarter
Jan 11
New
Jan 18
First Quarter

Hourly Weather History & Observations

Time (CST) Temp. Windchill Dew Point Humidity Pressure Visibility Wind Dir Wind Speed Gust Speed Precip Events Conditions
12:53 AM 57.9 °F - 53.1 °F 84% 29.68 in 10.0 mi SW 6.9 mph - N/A   Overcast
1:53 AM 57.9 °F - 51.1 °F 78% 29.67 in 10.0 mi SW 5.8 mph - N/A   Overcast
2:53 AM 57.0 °F - 50.0 °F 77% 29.69 in 10.0 mi WSW 10.4 mph - N/A   Clear
3:53 AM 55.9 °F - 46.0 °F 69% 29.70 in 10.0 mi WSW 12.7 mph 21.9 mph N/A   Clear
4:53 AM 53.1 °F - 46.0 °F 77% 29.73 in 10.0 mi WSW 12.7 mph 19.6 mph N/A   Mostly Cloudy
5:53 AM 52.0 °F - 43.0 °F 71% 29.76 in 10.0 mi WSW 12.7 mph 23.0 mph N/A   Mostly Cloudy
6:02 AM 51.8 °F - 41.0 °F 67% 29.78 in 10.0 mi WNW 23.0 mph 36.8 mph N/A   Mostly Cloudy
6:30 AM 48.2 °F - 37.4 °F 66% 29.81 in 10.0 mi WNW 15.0 mph 24.2 mph N/A   Mostly Cloudy
6:53 AM 46.0 °F 40.2 °F 35.1 °F 66% 29.82 in 10.0 mi West 12.7 mph 26.5 mph N/A   Partly Cloudy
7:53 AM 42.1 °F 34.5 °F 30.9 °F 65% 29.88 in 10.0 mi WNW 15.0 mph 20.7 mph N/A   Clear
8:17 AM 42.8 °F 35.8 °F 30.2 °F 61% 29.89 in 10.0 mi West 13.8 mph 21.9 mph N/A   Mostly Cloudy
8:53 AM 43.0 °F 34.8 °F 30.9 °F 62% 29.91 in 10.0 mi WNW 18.4 mph 24.2 mph N/A   Scattered Clouds
9:30 AM 44.6 °F 38.4 °F 32.0 °F 61% 29.94 in 10.0 mi West 12.7 mph 21.9 mph N/A   Mostly Cloudy
9:46 AM 42.8 °F 35.1 °F 30.2 °F 61% 29.95 in 10.0 mi WNW 16.1 mph 25.3 mph N/A   Mostly Cloudy
9:53 AM 43.0 °F 35.1 °F 30.9 °F 62% 29.95 in 10.0 mi WNW 17.3 mph 26.5 mph N/A   Overcast
10:30 AM 44.6 °F 36.9 °F 32.0 °F 61% 29.96 in 10.0 mi WNW 18.4 mph 24.2 mph N/A   Overcast
10:53 AM 45.0 °F 38.5 °F 30.9 °F 58% 29.96 in 10.0 mi WNW 13.8 mph 26.5 mph N/A   Overcast
11:53 AM 46.9 °F - 32.0 °F 56% 29.95 in 10.0 mi WNW 17.3 mph 23.0 mph N/A   Overcast
12:00 PM 46.4 °F 39.0 °F 32.0 °F 57% 29.95 in 10.0 mi NW 19.6 mph 26.5 mph N/A   Overcast
12:53 PM 50.0 °F - 33.1 °F 52% 29.94 in 10.0 mi NNW 17.3 mph 24.2 mph N/A   Partly Cloudy
1:53 PM 50.0 °F - 32.0 °F 50% 29.95 in 10.0 mi WNW 16.1 mph 25.3 mph N/A   Clear
2:53 PM 50.0 °F - 32.0 °F 50% 29.97 in 10.0 mi NW 12.7 mph 21.9 mph N/A   Clear
3:53 PM 48.0 °F - 33.1 °F 56% 29.99 in 10.0 mi NW 15.0 mph - N/A   Clear
4:53 PM 44.1 °F 39.5 °F 33.1 °F 65% 30.02 in 10.0 mi NW 8.1 mph - N/A   Clear
5:53 PM 42.1 °F 37.1 °F 33.1 °F 70% 30.05 in 10.0 mi NW 8.1 mph - N/A   Clear
6:53 PM 41.0 °F 38.0 °F 32.0 °F 70% 30.08 in 10.0 mi NNW 4.6 mph - N/A   Clear
7:53 PM 37.9 °F 34.4 °F 32.0 °F 79% 30.11 in 10.0 mi NNW 4.6 mph - N/A   Clear
8:53 PM 37.9 °F 32.7 °F 30.9 °F 76% 30.12 in 10.0 mi NNW 6.9 mph - N/A   Clear
9:53 PM 37.0 °F 31.6 °F 30.9 °F 79% 30.14 in 10.0 mi NW 6.9 mph - N/A   Clear
10:53 PM 37.0 °F 34.5 °F 30.9 °F 79% 30.12 in 10.0 mi North 3.5 mph - N/A   Clear
11:53 PM 32.0 °F - 28.9 °F 88% 30.13 in 10.0 mi Calm Calm - N/A   Clear